Weather History for KVPZ - September, 2012

Change the Weather History Date:

Saturday, September 22, 2012

  Actual Average Record
Temperature  
Mean Temperature 51 °F 61 °F  
Max Temperature 59 °F 72 °F 91 °F (2005)
Min Temperature 43 °F 50 °F 38 °F (1999)
Degree Days  
Heating Degree Days 14 5  
Month to date heating degree days 66 58  
Since 1 July heating degree days 72 75  
Cooling Degree Days 0 1  
Month to date cooling degree days 76 57  
Year to date cooling degree days 1049 693  
Moisture  
Dew Point 43 °F    
Average Humidity 82    
Maximum Humidity 100    
Minimum Humidity 50    
Precipitation  
Precipitation 0.01 in 0.10 in 0.39 in (2009)
Month to date precipitation 1.89 2.36  
Year to date precipitation 20.68 27.90  
Sea Level Pressure  
Sea Level Pressure 29.93 in    
Wind  
Wind Speed 10 mph (West)    
Max Wind Speed 23 mph    
Max Gust Speed 35 mph    
Visibility 6 miles    
Events Fog , Rain    
T = Trace of Precipitation, MM = Missing Value Source: NWS Daily Summary

Daily Weather History Graph

Daily Weather History Graph

Search for Another Location

Airport or City:

Trip Planner

Search our weather history database for the weather conditions in past years. The results will help you decide how hot, cold, wet, or windy it might be!

Date:

Astronomy

Sep. 22, 2012 Rise Set
Actual Time 6:35 AM CDT 6:44 PM CDT
Civil Twilight 6:08 AM CDT 7:11 PM CDT
Nautical Twilight 5:35 AM CDT 7:44 PM CDT
Astronomical Twilight 5:02 AM CDT 8:17 PM CDT
Moon 1:57 PM CDT (9/22) 11:44 PM CDT (9/22)
Length of Visible Light 13h 03m
Length of Day
12h 08m
Waxing Crescent, 49% of the Moon is Illuminated
Sep 22
Waxing Crescent
Sep 22
First Quarter
Sep 29
Full
Oct 8
Last Quarter
Oct 15
New

Hourly Weather History & Observations

Time (CDT) Temp. Windchill Dew Point Humidity Pressure Visibility Wind Dir Wind Speed Gust Speed Precip Events Conditions
12:53 AM 46.0 °F 44.8 °F 45.0 °F 96% 29.80 in 0.2 mi WNW 3.5 mph - N/A Fog Fog
1:15 AM 46.4 °F - 44.6 °F 93% 29.80 in 0.5 mi Calm Calm - N/A Fog Fog
1:22 AM 44.6 °F - 44.6 °F 100% 29.81 in 0.2 mi Calm Calm - N/A Fog Fog
1:46 AM 46.4 °F 42.9 °F 44.6 °F 93% 29.81 in 0.2 mi WNW 6.9 mph - N/A Fog Fog
1:53 AM 46.0 °F 43.1 °F 45.0 °F 96% 29.82 in 0.5 mi West 5.8 mph - N/A Fog Fog
2:02 AM 46.4 °F 44.3 °F 44.6 °F 93% 29.82 in 1.0 mi West 4.6 mph - N/A   Overcast
2:08 AM 46.4 °F 44.3 °F 46.4 °F 100% 29.82 in 3.0 mi WSW 4.6 mph - N/A   Overcast
2:53 AM 48.9 °F - 48.0 °F 97% 29.84 in 6.0 mi WNW 11.5 mph 16.1 mph N/A   Overcast
3:53 AM 50.0 °F - 48.0 °F 93% 29.83 in 7.0 mi WSW 8.1 mph - 0.00 in   Mostly Cloudy
4:53 AM 46.9 °F - 46.0 °F 97% 29.84 in 5.0 mi WSW 5.8 mph - N/A   Clear
5:53 AM 48.9 °F - 48.0 °F 97% 29.84 in 4.0 mi SW 4.6 mph - N/A   Overcast
6:30 AM 48.2 °F - 48.2 °F 100% 29.84 in 3.0 mi SW 5.8 mph - N/A   Overcast
6:43 AM 48.2 °F - 48.2 °F 100% 29.85 in 2.5 mi SW 8.1 mph - N/A   Overcast
6:53 AM 48.9 °F - 48.0 °F 97% 29.85 in 2.5 mi SW 9.2 mph - N/A   Overcast
7:00 AM 48.2 °F - 48.2 °F 100% 29.85 in 3.0 mi WSW 10.4 mph - N/A   Overcast
7:21 AM 50.0 °F - 48.2 °F 94% 29.85 in 4.0 mi SW 11.5 mph - 0.01 in Rain Light Rain
8:40 AM 51.8 °F - 48.2 °F 88% 29.86 in 8.0 mi WSW 15.0 mph 20.7 mph N/A   Mostly Cloudy
8:53 AM 52.0 °F - 48.9 °F 89% 29.86 in 5.0 mi WSW 12.7 mph - N/A   Overcast
9:00 AM 51.8 °F - 48.2 °F 88% 29.86 in 5.0 mi WSW 17.3 mph 23.0 mph N/A   Overcast
9:09 AM 51.8 °F - 48.2 °F 88% 29.86 in 5.0 mi WSW 13.8 mph - N/A   Overcast
9:53 AM 53.1 °F - 46.9 °F 80% 29.88 in 10.0 mi West 13.8 mph 21.9 mph N/A   Mostly Cloudy
10:36 AM 48.2 °F - 37.4 °F 66% 29.90 in 10.0 mi WNW 18.4 mph 28.8 mph N/A   Overcast
10:53 AM 52.0 °F - 35.1 °F 53% 29.91 in 10.0 mi WNW 18.4 mph 25.3 mph N/A   Scattered Clouds
11:53 AM 51.1 °F - 34.0 °F 52% 29.96 in 10.0 mi NW 15.0 mph 25.3 mph N/A   Scattered Clouds
12:53 PM 53.1 °F - 35.1 °F 50% 30.00 in 10.0 mi WNW 12.7 mph 27.6 mph N/A   Mostly Cloudy
1:53 PM 52.0 °F - 35.1 °F 53% 30.04 in 10.0 mi WNW 15.0 mph 27.6 mph 0.00 in   Overcast
3:53 PM 57.9 °F - 41.0 °F 53% 30.07 in 10.0 mi WNW 12.7 mph 18.4 mph N/A   Scattered Clouds
4:53 PM 57.9 °F - 41.0 °F 53% 30.09 in 10.0 mi NW 9.2 mph - N/A   Mostly Cloudy
5:53 PM 55.9 °F - 39.0 °F 53% 30.11 in 10.0 mi NNW 9.2 mph - N/A   Clear
6:53 PM 51.1 °F - 39.0 °F 63% 30.12 in 10.0 mi WNW 3.5 mph - N/A   Clear
7:53 PM 46.9 °F - 39.0 °F 74% 30.14 in 10.0 mi WSW 4.6 mph - N/A   Clear
8:53 PM 46.0 °F 42.5 °F 39.0 °F 76% 30.15 in 10.0 mi West 6.9 mph - N/A   Partly Cloudy
9:53 PM 46.0 °F 42.5 °F 39.0 °F 76% 30.17 in 10.0 mi West 6.9 mph - N/A   Scattered Clouds
10:53 PM 44.1 °F 40.8 °F 37.9 °F 79% 30.17 in 10.0 mi West 5.8 mph - N/A   Clear
11:53 PM 44.1 °F 40.1 °F 37.9 °F 79% 30.17 in 10.0 mi West 6.9 mph - N/A   Clear